Motorsport-Total.com @Twitter

Zwitschern mit viel PS!

Die wichtigsten Top-News erhalten Sie vorab über unseren Twitter-Channel @MST_Hot! Alle weiteren News aus unseren Rubriken finden Sie in unseren Twitter-Channels. Wann dürfen wir Ihnen etwas zwitschern?
Alle Twitter-Channels
Motorsport-Total.com-Agentur

Content von Motorsport-Total.com

Seit 1997 vertrauen zahlreiche Unternehmen auf die Inhalte (News, Fotos, Datenbanken, etc.) der Motorsport-Total.com-Agentur. Wann dürfen wir Sie als Kunden begrüßen?

Referenzkunden:
· arcor.de
· auto, motor und sport
· Bild.de
· GMX.de
· msn.de
· sueddeutsche.de
· stern.de
· T-Online.de
· Web.de
· Eurosport Yahoo!
· u.v.m.
Mehr Informationen
 
ANZEIGE
 
 
ANZEIGE
 
ANZEIGE
 
 
Apps zu Formel 1, MotoGP, DTM und Co. für Android, iOS und Windows Phone
Tests: Zeiten, Termine, Statistik

Exklusives "Testcenter"

Im "Testcenter" finden Sie Zeiten, Termine und unzählige Statistiken zu den Testfahrten in der Formel 1!
Zum Testcenter
Tickets für den Formula One Paddock Club - hier ordern!
Sie sind hier: Home > Formel 1 > Ergebnisse > Malaysia 2017

 GP Malaysia in Sepang / Qualifying

Session-Informationen im Überblick
Datum 30. September 2017 Wetter leicht bewölkt
Zeit (MESZ) 11:00 Uhr Lufttemp. 30-31°C
Ortszeit 17:00 Uhr Luftfeucht. 59-63%
Teilnehmer 20 Luftdruck 1.004 mBar
Rekord Rennen 1:34.223 Minuten Asphalt 43-48°C
Rekord Qualifying 1:32.850 Minuten Wind 2,5 m/s, Osten
Einzel-Sessions
Gesamtklassement
Klassement der dritten Qualifyingsession
Klassement der zweiten Qualifyingsession
Klassement der ersten Qualifyingsession

Gesamtklassement

Pos. Nr. Fahrer Team Zeit Abstand auf V. Rnd.
1 44 L. Hamilton Mercedes 1:30.076     6
2 7 K. Räikkönen Ferrari 1:30.121 +0:00.045 +0:00.045 6
3 33 M. Verstappen Red Bull 1:30.541 +0:00.465 +0:00.420 6
4 3 D. Ricciardo Red Bull 1:30.595 +0:00.519 +0:00.054 6
5 77 V. Bottas Mercedes 1:30.758 +0:00.682 +0:00.163 6
6 31 E. Ocon Force India 1:31.478 +0:01.402 +0:00.720 6
7 2 S. Vandoorne McLaren 1:31.582 +0:01.506 +0:00.104 6
8 27 N. Hülkenberg Renault 1:31.607 +0:01.531 +0:00.025 3
9 11 S. Perez Force India 1:31.658 +0:01.582 +0:00.051 6
10 14 F. Alonso McLaren 1:31.704 +0:01.628 +0:00.046 6
11 19 F. Massa Williams 1:32.034     6
12 30 J. Palmer Renault 1:32.100 +0:00.066 +0:00.066 6
13 18 L. Stroll Williams 1:32.307 +0:00.273 +0:00.207 6
14 55 C. Sainz Toro Rosso 1:32.402 +0:00.368 +0:00.095 6
15 10 P. Gasly Toro Rosso 1:32.558 +0:00.524 +0:00.156 6
16 8 R. Grosjean Haas F1 1:33.308     8
17 20 K. Magnussen Haas F1 1:33.434 +0:00.126 +0:00.126 6
18 94 P. Wehrlein Sauber 1:33.483 +0:00.175 +0:00.049 9
19 9 M. Ericsson Sauber 1:33.970 +0:00.662 +0:00.487 9
20 5 S. Vettel Ferrari -:--.--- -:--.--- -:--.--- 2
  107-Prozent-Zeit 1:38.017
auf V. = auf Vordermann, Rnd. = Runden

 

Klassement der dritten Qualifyingsession

Pos. Nr. Fahrer Team Zeit Abstand auf V. Rnd.
1 44 L. Hamilton Mercedes 1:30.076     6
2 7 K. Räikkönen Ferrari 1:30.121 +0:00.045 +0:00.045 6
3 33 M. Verstappen Red Bull 1:30.541 +0:00.465 +0:00.420 6
4 3 D. Ricciardo Red Bull 1:30.595 +0:00.519 +0:00.054 6
5 77 V. Bottas Mercedes 1:30.758 +0:00.682 +0:00.163 6
6 31 E. Ocon Force India 1:31.478 +0:01.402 +0:00.720 6
7 2 S. Vandoorne McLaren 1:31.582 +0:01.506 +0:00.104 6
8 27 N. Hülkenberg Renault 1:31.607 +0:01.531 +0:00.025 3
9 11 S. Perez Force India 1:31.658 +0:01.582 +0:00.051 6
10 14 F. Alonso McLaren 1:31.704 +0:01.628 +0:00.046 6
  107-Prozent-Zeit 1:36.381
auf V. = auf Vordermann, Rnd. = Runden

 

Klassement der zweiten Qualifyingsession

Pos. Nr. Fahrer Team Zeit Abstand auf V. Rnd.
1 77 V. Bottas Mercedes 1:30.803     6
2 7 K. Räikkönen Ferrari 1:30.926 +0:00.123 +0:00.123 3
3 33 M. Verstappen Red Bull 1:30.931 +0:00.128 +0:00.005 3
4 44 L. Hamilton Mercedes 1:30.977 +0:00.174 +0:00.046 6
5 3 D. Ricciardo Red Bull 1:31.061 +0:00.258 +0:00.084 6
6 11 S. Perez Force India 1:31.484 +0:00.681 +0:00.423 7
7 31 E. Ocon Force India 1:31.651 +0:00.848 +0:00.167 6
8 27 N. Hülkenberg Renault 1:31.778 +0:00.975 +0:00.127 6
9 2 S. Vandoorne McLaren 1:31.848 +0:01.045 +0:00.070 6
10 14 F. Alonso McLaren 1:32.010 +0:01.207 +0:00.162 6
11 19 F. Massa Williams 1:32.034 +0:01.231 +0:00.024 6
12 30 J. Palmer Renault 1:32.100 +0:01.297 +0:00.066 6
13 18 L. Stroll Williams 1:32.307 +0:01.504 +0:00.207 6
14 55 C. Sainz Toro Rosso 1:32.402 +0:01.599 +0:00.095 6
15 10 P. Gasly Toro Rosso 1:32.558 +0:01.755 +0:00.156 6
  107-Prozent-Zeit 1:37.159
auf V. = auf Vordermann, Rnd. = Runden

 

Klassement der ersten Qualifyingsession

Pos. Nr. Fahrer Team Zeit Abstand auf V. Rnd.
1 44 L. Hamilton Mercedes 1:31.605     6
2 33 M. Verstappen Red Bull 1:31.920 +0:00.315 +0:00.315 3
3 77 V. Bottas Mercedes 1:32.254 +0:00.649 +0:00.334 5
4 7 K. Räikkönen Ferrari 1:32.259 +0:00.654 +0:00.005 5
5 19 F. Massa Williams 1:32.267 +0:00.662 +0:00.008 6
6 3 D. Ricciardo Red Bull 1:32.416 +0:00.811 +0:00.149 4
7 31 E. Ocon Force India 1:32.527 +0:00.922 +0:00.111 5
8 10 P. Gasly Toro Rosso 1:32.547 +0:00.942 +0:00.020 8
9 30 J. Palmer Renault 1:32.576 +0:00.971 +0:00.029 8
10 27 N. Hülkenberg Renault 1:32.586 +0:00.981 +0:00.010 8
11 55 C. Sainz Toro Rosso 1:32.650 +0:01.045 +0:00.064 8
12 11 S. Perez Force India 1:32.768 +0:01.163 +0:00.118 5
13 2 S. Vandoorne McLaren 1:32.838 +0:01.233 +0:00.070 6
14 18 L. Stroll Williams 1:33.000 +0:01.395 +0:00.162 8
15 14 F. Alonso McLaren 1:33.049 +0:01.444 +0:00.049 5
16 8 R. Grosjean Haas F1 1:33.308 +0:01.703 +0:00.259 8
17 20 K. Magnussen Haas F1 1:33.434 +0:01.829 +0:00.126 6
18 94 P. Wehrlein Sauber 1:33.483 +0:01.878 +0:00.049 9
19 9 M. Ericsson Sauber 1:33.970 +0:02.365 +0:00.487 9
20 5 S. Vettel Ferrari -:--.--- -:--.--- -:--.--- 2
  107-Prozent-Zeit 1:38.017
auf V. = auf Vordermann, Rnd. = Runden

 

 

 
Nach oben